Precipitable_Water
0.39 0.39 0.40 0.42 0.41 0.40 0.39 0.39 0.39 0.39 0.41 0.40 0.35 0.34 0.36 0.34 0.26 0.21 0.27 0.31 0.28 0.30 0.34 0.37 0.39 0.42 0.44 0.47 0.53 0.61 0.66 0.71 0.76 0.79 0.81 0.85 0.90 0.92 0.92 0.93 0.93 0.92 0.91 0.93 0.95 0.96 0.95 0.92 0.88 0.86 0.83 0.81 0.78 0.76 0.75 0.76 0.76 0.76 0.80 0.80 0.79 0.79 0.80 0.79 0.81 0.82 0.83 0.85 0.88 0.89 0.86 0.83 0.82 0.83 0.87 0.90 0.95 0.99 1.04 1.07 1.11 1.14 1.16 1.17 1.15 1.17 1.23
0.40 0.41 0.42 0.43 0.40 0.40 0.39 0.38 0.39 0.40 0.39 0.39 0.38 0.37 0.37 0.34 0.30 0.31 0.31 0.32 0.30 0.33 0.36 0.40 0.43 0.47 0.48 0.52 0.61 0.65 0.67 0.69 0.72 0.76 0.80 0.84 0.87 0.88 0.89 0.91 0.91 0.93 0.93 0.94 0.95 0.96 0.92 0.89 0.86 0.83 0.82 0.80 0.76 0.72 0.71 0.74 0.75 0.78 0.81 0.79 0.77 0.78 0.77 0.79 0.82 0.83 0.84 0.87 0.89 0.87 0.83 0.81 0.81 0.83 0.83 0.86 0.90 0.95 1.00 1.05 1.08 1.12 1.13 1.13 1.15 1.16 1.18
0.39 0.42 0.44 0.43 0.42 0.40 0.37 0.40 0.41 0.42 0.41 0.39 0.38 0.36 0.36 0.36 0.33 0.34 0.33 0.32 0.29 0.35 0.41 0.41 0.45 0.48 0.52 0.55 0.57 0.59 0.64 0.70 0.73 0.75 0.78 0.83 0.86 0.88 0.89 0.90 0.93 0.95 0.95 0.96 0.97 0.95 0.90 0.87 0.84 0.83 0.82 0.79 0.76 0.73 0.72 0.72 0.73 0.77 0.80 0.79 0.78 0.78 0.77 0.81 0.84 0.86 0.86 0.86 0.87 0.83 0.80 0.78 0.79 0.82 0.83 0.85 0.87 0.92 0.97 1.03 1.06 1.08 1.09 1.07 1.09 1.15 1.20
0.36 0.41 0.41 0.41 0.43 0.42 0.39 0.39 0.39 0.38 0.37 0.34 0.34 0.32 0.35 0.32 0.30 0.31 0.31 0.26 0.26 0.32 0.39 0.43 0.46 0.48 0.48 0.49 0.53 0.57 0.61 0.67 0.72 0.75 0.79 0.83 0.85 0.87 0.88 0.91 0.93 0.93 0.94 0.95 0.96 0.92 0.89 0.88 0.86 0.84 0.81 0.77 0.75 0.72 0.72 0.72 0.75 0.79 0.81 0.81 0.80 0.80 0.82 0.85 0.88 0.88 0.89 0.88 0.86 0.83 0.79 0.74 0.73 0.79 0.84 0.85 0.86 0.89 0.93 0.98 1.03 1.06 1.04 1.03 1.03 1.09 1.17
0.34 0.40 0.42 0.40 0.40 0.38 0.34 0.34 0.36 0.37 0.37 0.36 0.36 0.36 0.37 0.35 0.33 0.27 0.24 0.24 0.32 0.36 0.43 0.41 0.43 0.46 0.49 0.50 0.51 0.54 0.61 0.66 0.70 0.74 0.79 0.83 0.87 0.87 0.88 0.89 0.90 0.91 0.93 0.96 0.96 0.93 0.91 0.88 0.85 0.84 0.81 0.76 0.74 0.74 0.73 0.75 0.79 0.79 0.80 0.80 0.80 0.80 0.84 0.88 0.90 0.92 0.91 0.89 0.87 0.84 0.80 0.75 0.74 0.76 0.80 0.83 0.85 0.86 0.87 0.93 1.00 1.00 1.00 0.99 0.98 1.03 1.11
0.34 0.39 0.40 0.41 0.35 0.27 0.28 0.40 0.42 0.38 0.34 0.35 0.32 0.32 0.34 0.35 0.33 0.29 0.31 0.31 0.35 0.38 0.41 0.41 0.42 0.44 0.45 0.46 0.50 0.55 0.54 0.59 0.67 0.77 0.82 0.84 0.85 0.86 0.86 0.87 0.90 0.93 0.98 1.00 0.98 0.94 0.91 0.89 0.87 0.85 0.82 0.78 0.78 0.79 0.78 0.79 0.79 0.80 0.79 0.80 0.80 0.81 0.85 0.89 0.94 0.95 0.95 0.93 0.89 0.85 0.82 0.78 0.77 0.75 0.78 0.82 0.85 0.87 0.88 0.91 0.92 0.95 0.98 0.97 0.98 1.01 1.05
0.35 0.40 0.41 0.35 0.26 0.27 0.40 0.43 0.42 0.41 0.39 0.36 0.33 0.34 0.34 0.32 0.33 0.33 0.30 0.30 0.32 0.38 0.43 0.47 0.49 0.52 0.55 0.57 0.55 0.57 0.62 0.63 0.66 0.70 0.76 0.79 0.81 0.83 0.85 0.89 0.94 0.97 0.98 0.97 0.96 0.95 0.91 0.89 0.88 0.85 0.82 0.83 0.84 0.81 0.80 0.78 0.80 0.80 0.81 0.80 0.81 0.83 0.86 0.90 0.95 0.98 0.99 0.98 0.91 0.85 0.82 0.79 0.77 0.75 0.79 0.85 0.86 0.86 0.87 0.88 0.89 0.90 0.93 0.94 0.97 1.01 1.04
0.42 0.37 0.36 0.25 0.25 0.38 0.42 0.44 0.45 0.46 0.42 0.40 0.36 0.30 0.31 0.33 0.33 0.35 0.32 0.34 0.35 0.39 0.46 0.52 0.56 0.57 0.59 0.60 0.61 0.61 0.65 0.68 0.69 0.71 0.75 0.80 0.82 0.84 0.89 0.91 0.94 0.96 0.97 0.96 0.94 0.91 0.92 0.90 0.87 0.85 0.82 0.85 0.83 0.78 0.79 0.78 0.80 0.81 0.81 0.81 0.80 0.84 0.87 0.90 0.94 1.00 1.03 0.99 0.90 0.85 0.84 0.81 0.77 0.77 0.81 0.87 0.86 0.88 0.88 0.89 0.90 0.91 0.92 0.93 0.92 0.96 1.03
0.32 0.34 0.33 0.30 0.39 0.36 0.39 0.37 0.39 0.38 0.32 0.33 0.29 0.23 0.25 0.32 0.35 0.37 0.36 0.38 0.41 0.43 0.47 0.53 0.57 0.60 0.60 0.54 0.56 0.65 0.68 0.72 0.76 0.77 0.80 0.82 0.85 0.90 0.95 0.97 0.97 0.98 0.98 0.96 0.94 0.92 0.90 0.88 0.84 0.82 0.83 0.85 0.82 0.79 0.78 0.79 0.80 0.80 0.81 0.79 0.78 0.83 0.88 0.92 0.97 1.03 1.05 0.96 0.89 0.89 0.89 0.83 0.78 0.79 0.82 0.87 0.88 0.92 0.89 0.89 0.85 0.84 0.86 0.87 0.89 0.91 0.95
0.40 0.33 0.31 0.33 0.31 0.26 0.32 0.38 0.40 0.41 0.40 0.38 0.38 0.31 0.26 0.34 0.36 0.39 0.40 0.40 0.45 0.48 0.52 0.55 0.58 0.60 0.51 0.44 0.51 0.65 0.71 0.75 0.78 0.82 0.84 0.89 0.92 0.95 0.98 1.00 0.99 0.99 0.98 0.96 0.95 0.90 0.86 0.83 0.82 0.82 0.83 0.82 0.81 0.80 0.79 0.79 0.79 0.80 0.81 0.78 0.79 0.83 0.88 0.94 0.99 1.04 1.02 0.96 0.92 0.91 0.88 0.83 0.82 0.84 0.88 0.90 0.90 0.94 0.90 0.90 0.86 0.84 0.86 0.86 0.86 0.86 0.88
0.39 0.36 0.30 0.28 0.25 0.28 0.38 0.38 0.41 0.42 0.41 0.39 0.42 0.31 0.23 0.32 0.36 0.42 0.45 0.44 0.48 0.52 0.54 0.57 0.60 0.53 0.43 0.45 0.53 0.66 0.72 0.77 0.82 0.83 0.88 0.92 0.95 0.98 0.98 0.96 0.94 0.94 0.93 0.90 0.89 0.87 0.84 0.79 0.79 0.82 0.81 0.80 0.82 0.82 0.82 0.82 0.82 0.81 0.81 0.78 0.78 0.81 0.88 0.95 1.00 1.01 0.99 0.98 0.96 0.93 0.89 0.88 0.89 0.88 0.88 0.89 0.91 0.93 0.92 0.91 0.90 0.88 0.86 0.82 0.81 0.82 0.83
0.37 0.35 0.32 0.28 0.32 0.31 0.39 0.42 0.41 0.44 0.45 0.43 0.36 0.21 0.19 0.32 0.40 0.47 0.48 0.46 0.50 0.54 0.58 0.60 0.56 0.49 0.45 0.49 0.57 0.70 0.78 0.82 0.87 0.88 0.88 0.90 0.93 0.95 0.96 0.97 0.93 0.89 0.90 0.89 0.85 0.81 0.78 0.76 0.79 0.82 0.84 0.83 0.83 0.84 0.85 0.87 0.86 0.85 0.83 0.80 0.80 0.84 0.90 0.95 0.98 0.97 1.00 0.99 0.98 0.96 0.93 0.92 0.93 0.93 0.94 0.91 0.88 0.87 0.88 0.91 0.90 0.88 0.83 0.79 0.75 0.76 0.79
0.37 0.34 0.32 0.33 0.33 0.40 0.44 0.45 0.46 0.48 0.50 0.40 0.26 0.19 0.24 0.40 0.43 0.48 0.49 0.47 0.52 0.57 0.57 0.58 0.50 0.59 0.61 0.64 0.72 0.79 0.84 0.85 0.88 0.91 0.93 0.92 0.91 0.90 0.89 0.87 0.89 0.86 0.85 0.81 0.77 0.75 0.75 0.76 0.78 0.82 0.85 0.84 0.84 0.88 0.89 0.89 0.86 0.86 0.86 0.85 0.85 0.85 0.89 0.92 0.94 0.96 1.00 1.01 0.98 0.98 0.98 0.95 0.96 0.97 0.95 0.90 0.87 0.84 0.81 0.83 0.84 0.83 0.79 0.75 0.73 0.74 0.78
0.34 0.35 0.32 0.31 0.34 0.41 0.46 0.48 0.50 0.53 0.39 0.24 0.21 0.33 0.43 0.43 0.45 0.51 0.53 0.52 0.56 0.58 0.58 0.60 0.62 0.68 0.72 0.76 0.80 0.81 0.83 0.84 0.87 0.88 0.89 0.90 0.90 0.90 0.88 0.87 0.85 0.81 0.79 0.77 0.76 0.75 0.77 0.80 0.83 0.85 0.86 0.84 0.85 0.89 0.91 0.87 0.84 0.85 0.86 0.87 0.86 0.86 0.88 0.90 0.93 0.96 0.97 0.99 0.98 0.97 0.99 0.99 0.97 0.94 0.96 0.95 0.92 0.88 0.86 0.84 0.80 0.78 0.79 0.78 0.75 0.75 0.78
0.40 0.38 0.34 0.31 0.26 0.40 0.50 0.53 0.49 0.52 0.32 0.31 0.41 0.46 0.49 0.53 0.51 0.52 0.55 0.56 0.60 0.63 0.63 0.67 0.69 0.71 0.74 0.75 0.77 0.79 0.82 0.83 0.84 0.86 0.86 0.82 0.80 0.79 0.80 0.81 0.83 0.79 0.75 0.74 0.72 0.73 0.80 0.85 0.87 0.88 0.89 0.86 0.88 0.91 0.88 0.85 0.85 0.86 0.88 0.89 0.88 0.87 0.88 0.89 0.92 0.95 0.97 0.96 0.96 0.97 0.98 1.00 0.98 0.95 0.96 0.96 0.96 0.94 0.91 0.89 0.86 0.83 0.83 0.83 0.80 0.76 0.77
0.33 0.33 0.31 0.31 0.39 0.47 0.54 0.50 0.38 0.45 0.43 0.47 0.50 0.50 0.49 0.57 0.58 0.57 0.57 0.60 0.65 0.69 0.68 0.69 0.71 0.73 0.74 0.76 0.78 0.80 0.82 0.84 0.86 0.85 0.82 0.80 0.79 0.78 0.79 0.78 0.79 0.80 0.75 0.74 0.75 0.80 0.85 0.88 0.90 0.92 0.90 0.88 0.88 0.87 0.86 0.87 0.88 0.88 0.89 0.90 0.90 0.89 0.88 0.88 0.89 0.93 0.96 0.96 0.96 0.97 1.00 1.01 1.00 0.98 0.96 0.98 0.99 0.98 0.97 0.94 0.91 0.88 0.86 0.86 0.84 0.81 0.79
0.39 0.35 0.38 0.45 0.51 0.54 0.55 0.51 0.47 0.49 0.52 0.55 0.58 0.57 0.56 0.56 0.60 0.66 0.63 0.64 0.69 0.73 0.73 0.73 0.73 0.72 0.75 0.75 0.79 0.77 0.79 0.80 0.80 0.79 0.79 0.78 0.78 0.77 0.77 0.78 0.81 0.83 0.78 0.75 0.78 0.81 0.86 0.88 0.90 0.92 0.93 0.88 0.87 0.86 0.87 0.90 0.89 0.88 0.90 0.90 0.89 0.88 0.88 0.87 0.86 0.90 0.95 0.96 0.95 0.97 1.01 1.03 1.02 1.03 1.01 1.00 0.97 1.00 0.99 0.97 0.96 0.93 0.91 0.90 0.88 0.87 0.85
0.52 0.53 0.51 0.53 0.51 0.50 0.50 0.52 0.54 0.54 0.57 0.61 0.64 0.63 0.60 0.63 0.66 0.70 0.67 0.71 0.72 0.74 0.76 0.72 0.74 0.73 0.75 0.75 0.75 0.76 0.76 0.75 0.76 0.77 0.77 0.79 0.81 0.82 0.82 0.82 0.84 0.84 0.84 0.83 0.82 0.82 0.85 0.87 0.89 0.92 0.93 0.90 0.86 0.86 0.90 0.91 0.91 0.90 0.91 0.89 0.87 0.86 0.87 0.87 0.87 0.90 0.95 0.97 1.00 1.02 1.03 1.06 1.07 1.07 1.05 1.02 0.98 0.98 0.98 0.96 0.96 0.95 0.94 0.93 0.92 0.90 0.88
0.42 0.36 0.49 0.50 0.51 0.55 0.56 0.57 0.61 0.64 0.65 0.64 0.67 0.66 0.67 0.70 0.72 0.74 0.76 0.75 0.75 0.75 0.76 0.74 0.73 0.74 0.75 0.74 0.74 0.76 0.76 0.74 0.72 0.72 0.74 0.76 0.78 0.79 0.78 0.82 0.85 0.84 0.84 0.82 0.82 0.82 0.80 0.86 0.89 0.91 0.91 0.92 0.91 0.91 0.91 0.91 0.91 0.91 0.90 0.88 0.85 0.85 0.85 0.87 0.91 0.95 0.94 0.93 0.95 1.00 1.02 1.05 1.05 1.04 1.04 1.04 1.01 0.98 0.98 0.96 0.94 0.94 0.94 0.93 0.92 0.90 0.88
0.40 0.40 0.47 0.52 0.57 0.58 0.60 0.61 0.60 0.61 0.65 0.69 0.72 0.74 0.76 0.76 0.78 0.77 0.77 0.77 0.75 0.77 0.73 0.73 0.71 0.71 0.74 0.71 0.71 0.71 0.71 0.70 0.71 0.71 0.71 0.71 0.74 0.78 0.81 0.83 0.84 0.83 0.82 0.80 0.80 0.79 0.78 0.83 0.87 0.90 0.92 0.91 0.93 0.94 0.94 0.93 0.92 0.90 0.87 0.85 0.83 0.82 0.83 0.87 0.91 0.94 0.95 0.95 0.95 0.95 1.00 1.03 1.04 1.03 1.01 1.03 1.02 0.99 0.99 0.99 0.95 0.93 0.93 0.93 0.92 0.91 0.89
0.44 0.48 0.52 0.54 0.56 0.57 0.60 0.64 0.67 0.69 0.72 0.72 0.73 0.75 0.75 0.75 0.74 0.74 0.75 0.76 0.74 0.73 0.72 0.73 0.71 0.70 0.71 0.70 0.68 0.66 0.66 0.68 0.68 0.70 0.71 0.73 0.75 0.78 0.78 0.81 0.83 0.80 0.79 0.77 0.76 0.76 0.76 0.82 0.87 0.90 0.92 0.93 0.95 0.94 0.93 0.92 0.90 0.86 0.84 0.84 0.85 0.84 0.84 0.85 0.87 0.93 0.93 0.94 0.97 0.98 0.99 1.01 1.04 1.04 1.00 1.00 1.02 1.03 1.07 1.09 1.05 0.99 0.96 0.96 0.97 0.97 0.95
0.38 0.39 0.45 0.51 0.42 0.43 0.53 0.61 0.66 0.70 0.74 0.75 0.74 0.74 0.73 0.73 0.72 0.73 0.72 0.73 0.75 0.74 0.74 0.72 0.70 0.67 0.69 0.70 0.69 0.66 0.67 0.68 0.71 0.72 0.72 0.73 0.73 0.73 0.76 0.77 0.77 0.76 0.76 0.75 0.74 0.75 0.79 0.86 0.89 0.92 0.92 0.93 0.95 0.95 0.94 0.91 0.89 0.85 0.84 0.84 0.84 0.84 0.85 0.85 0.89 0.92 0.92 0.93 0.97 1.00 0.99 0.99 0.99 1.00 1.07 1.08 1.07 1.04 1.04 1.09 1.09 1.08 1.05 1.00 1.00 1.00 0.98
0.40 0.48 0.52 0.55 0.54 0.53 0.54 0.58 0.64 0.69 0.74 0.74 0.72 0.71 0.71 0.73 0.74 0.74 0.72 0.70 0.71 0.71 0.72 0.73 0.70 0.69 0.69 0.70 0.71 0.68 0.69 0.69 0.72 0.72 0.70 0.67 0.66 0.66 0.69 0.69 0.71 0.71 0.73 0.75 0.75 0.76 0.80 0.86 0.89 0.91 0.92 0.93 0.93 0.94 0.93 0.92 0.90 0.87 0.86 0.85 0.85 0.86 0.86 0.88 0.92 0.95 0.95 0.96 1.00 1.01 1.00 0.99 0.98 0.96 0.98 1.04 1.08 1.09 1.09 1.09 1.09 1.09 1.08 1.06 1.04 1.03 1.01
0.54 0.57 0.57 0.59 0.57 0.53 0.57 0.62 0.66 0.68 0.71 0.70 0.69 0.72 0.73 0.72 0.72 0.73 0.71 0.70 0.67 0.69 0.71 0.73 0.75 0.73 0.72 0.72 0.68 0.62 0.63 0.65 0.66 0.66 0.66 0.66 0.67 0.69 0.70 0.69 0.69 0.70 0.71 0.73 0.74 0.76 0.82 0.86 0.88 0.90 0.90 0.91 0.92 0.95 0.95 0.93 0.92 0.89 0.90 0.91 0.89 0.91 0.94 0.97 0.99 1.00 1.00 0.99 1.01 1.00 1.01 1.00 0.99 0.98 0.98 0.97 1.00 1.07 1.09 1.09 1.10 1.10 1.10 1.07 1.05 1.03 1.03
0.55 0.60 0.60 0.61 0.60 0.60 0.64 0.67 0.70 0.71 0.74 0.74 0.71 0.72 0.73 0.73 0.74 0.75 0.72 0.72 0.73 0.71 0.71 0.70 0.72 0.72 0.67 0.66 0.64 0.61 0.59 0.62 0.64 0.65 0.69 0.70 0.71 0.70 0.70 0.69 0.69 0.69 0.72 0.75 0.78 0.80 0.83 0.85 0.87 0.89 0.90 0.92 0.96 0.96 0.95 0.93 0.91 0.92 0.96 0.95 0.93 0.94 0.95 0.96 0.98 0.99 1.00 0.98 0.99 1.01 1.01 1.00 1.00 1.01 0.99 0.97 0.93 0.95 1.04 1.09 1.09 1.08 1.08 1.07 1.06 1.04 1.03
0.67 0.65 0.65 0.67 0.65 0.63 0.66 0.68 0.69 0.70 0.73 0.76 0.75 0.75 0.78 0.77 0.77 0.76 0.74 0.74 0.73 0.73 0.71 0.69 0.67 0.68 0.68 0.65 0.64 0.64 0.64 0.65 0.70 0.72 0.71 0.69 0.69 0.69 0.68 0.68 0.71 0.73 0.74 0.76 0.78 0.78 0.79 0.80 0.82 0.85 0.86 0.90 0.91 0.91 0.91 0.92 0.92 0.92 0.90 0.89 0.90 0.88 0.88 0.94 0.98 1.00 1.01 1.00 1.00 1.01 1.05 1.03 1.01 0.99 1.01 1.02 0.99 0.96 0.95 0.95 0.99 1.02 1.04 1.04 1.03 1.03 1.02
0.69 0.69 0.68 0.65 0.61 0.62 0.66 0.61 0.60 0.68 0.73 0.78 0.77 0.77 0.80 0.81 0.80 0.77 0.77 0.76 0.73 0.72 0.70 0.70 0.70 0.70 0.70 0.70 0.69 0.70 0.68 0.72 0.74 0.73 0.71 0.69 0.67 0.68 0.71 0.72 0.72 0.74 0.75 0.74 0.74 0.76 0.77 0.78 0.79 0.81 0.83 0.86 0.89 0.90 0.90 0.89 0.88 0.89 0.90 0.89 0.86 0.85 0.90 0.98 1.01 1.02 1.05 1.05 1.04 1.05 1.05 1.04 1.03 1.04 1.02 1.05 1.06 1.00 0.94 0.90 0.89 0.88 0.89 0.95 0.99 1.00 0.98
0.65 0.67 0.68 0.63 0.63 0.65 0.66 0.69 0.70 0.72 0.75 0.76 0.76 0.75 0.77 0.78 0.74 0.71 0.69 0.69 0.68 0.70 0.71 0.72 0.71 0.70 0.68 0.72 0.72 0.72 0.75 0.74 0.71 0.70 0.68 0.67 0.70 0.72 0.73 0.74 0.75 0.74 0.73 0.71 0.69 0.72 0.73 0.75 0.77 0.79 0.82 0.87 0.90 0.91 0.91 0.91 0.91 0.90 0.89 0.88 0.89 0.90 0.95 1.01 1.03 1.03 1.05 1.06 1.09 1.08 1.08 1.08 1.08 1.06 1.07 1.04 0.99 1.00 0.96 0.93 0.90 0.87 0.86 0.88 0.90 0.94 0.96
0.51 0.62 0.66 0.67 0.71 0.73 0.75 0.76 0.72 0.72 0.74 0.78 0.79 0.76 0.74 0.70 0.69 0.66 0.65 0.65 0.66 0.67 0.66 0.69 0.71 0.71 0.70 0.72 0.74 0.72 0.71 0.71 0.69 0.68 0.69 0.72 0.73 0.74 0.74 0.72 0.71 0.69 0.66 0.66 0.67 0.69 0.71 0.72 0.75 0.76 0.80 0.88 0.91 0.94 0.95 0.96 0.96 0.96 0.95 0.97 0.99 0.99 1.01 1.05 1.06 1.08 1.10 1.14 1.17 1.17 1.18 1.12 1.10 1.09 1.09 1.12 1.05 0.99 0.93 0.89 0.87 0.87 0.85 0.85 0.86 0.87 0.90
0.36 0.43 0.53 0.62 0.65 0.70 0.72 0.70 0.70 0.72 0.75 0.78 0.76 0.74 0.72 0.68 0.65 0.65 0.65 0.66 0.67 0.65 0.66 0.68 0.68 0.70 0.74 0.73 0.74 0.73 0.72 0.71 0.71 0.73 0.73 0.73 0.74 0.74 0.74 0.73 0.72 0.69 0.68 0.68 0.70 0.73 0.74 0.76 0.78 0.80 0.87 0.93 0.96 0.98 0.99 1.00 1.00 1.01 1.02 1.04 1.04 1.04 1.06 1.04 1.05 1.10 1.12 1.13 1.17 1.17 1.14 1.16 1.15 1.13 1.13 1.06 0.99 0.94 0.89 0.87 0.86 0.83 0.80 0.80 0.79 0.77 0.74
0.34 0.36 0.41 0.49 0.58 0.61 0.61 0.64 0.69 0.74 0.77 0.77 0.75 0.73 0.73 0.70 0.65 0.64 0.64 0.66 0.68 0.67 0.69 0.68 0.69 0.72 0.74 0.75 0.77 0.79 0.79 0.77 0.75 0.75 0.75 0.75 0.75 0.75 0.75 0.74 0.67 0.64 0.65 0.70 0.75 0.78 0.79 0.83 0.86 0.89 0.95 0.99 1.00 1.02 1.01 1.00 1.00 1.01 1.02 1.04 1.06 1.08 1.09 1.11 1.13 1.15 1.16 1.16 1.20 1.19 1.18 1.16 1.14 1.12 1.07 1.01 0.97 0.92 0.88 0.84 0.79 0.74 0.72 0.72 0.71 0.71 0.72
0.37 0.35 0.36 0.39 0.44 0.47 0.50 0.53 0.58 0.67 0.73 0.74 0.72 0.69 0.68 0.65 0.63 0.62 0.64 0.64 0.65 0.67 0.69 0.70 0.71 0.72 0.75 0.77 0.78 0.78 0.76 0.75 0.75 0.75 0.75 0.75 0.75 0.76 0.77 0.76 0.75 0.76 0.78 0.80 0.82 0.85 0.86 0.87 0.89 0.94 0.99 1.02 1.05 1.04 1.02 1.00 1.01 1.00 1.01 1.04 1.05 1.06 1.10 1.10 1.12 1.17 1.16 1.17 1.16 1.14 1.11 1.10 1.09 1.08 1.03 0.96 0.91 0.87 0.82 0.77 0.72 0.71 0.69 0.68 0.68 0.68 0.73
0.37 0.33 0.32 0.33 0.38 0.43 0.45 0.51 0.54 0.57 0.62 0.61 0.61 0.64 0.67 0.67 0.66 0.66 0.67 0.68 0.69 0.71 0.71 0.70 0.71 0.73 0.73 0.74 0.72 0.71 0.70 0.71 0.73 0.73 0.73 0.74 0.76 0.78 0.81 0.82 0.83 0.84 0.84 0.85 0.87 0.89 0.89 0.89 0.94 1.02 1.05 1.06 1.05 1.04 1.03 1.02 1.01 1.00 1.02 1.04 1.04 1.07 1.10 1.10 1.11 1.12 1.13 1.11 1.11 1.10 1.09 1.09 1.07 1.01 0.96 0.93 0.89 0.85 0.81 0.77 0.75 0.72 0.70 0.68 0.68 0.69 0.70
0.43 0.39 0.37 0.39 0.40 0.40 0.43 0.48 0.55 0.57 0.60 0.63 0.64 0.64 0.64 0.65 0.66 0.68 0.69 0.71 0.72 0.71 0.69 0.70 0.71 0.72 0.73 0.72 0.71 0.71 0.72 0.70 0.69 0.71 0.74 0.77 0.78 0.80 0.83 0.86 0.87 0.87 0.88 0.89 0.90 0.91 0.93 0.96 1.01 1.02 1.03 1.03 1.04 1.03 1.02 1.02 1.02 1.03 1.04 1.05 1.04 1.04 1.05 1.08 1.12 1.11 1.09 1.09 1.09 1.11 1.09 1.04 0.98 0.95 0.93 0.91 0.89 0.85 0.80 0.75 0.71 0.68 0.66 0.64 0.64 0.65 0.66
0.50 0.48 0.47 0.47 0.48 0.47 0.48 0.50 0.55 0.59 0.59 0.59 0.63 0.66 0.69 0.70 0.70 0.71 0.73 0.72 0.71 0.70 0.72 0.73 0.73 0.73 0.73 0.72 0.71 0.70 0.71 0.70 0.72 0.75 0.77 0.80 0.81 0.83 0.86 0.86 0.87 0.88 0.88 0.92 0.95 0.96 0.98 1.00 1.02 1.02 1.02 1.02 1.01 1.01 1.01 1.02 1.03 1.04 1.05 1.06 1.06 1.04 1.05 1.05 1.07 1.04 1.02 1.02 1.02 0.99 0.95 0.91 0.89 0.89 0.87 0.83 0.79 0.75 0.72 0.68 0.65 0.63 0.61 0.60 0.61 0.63 0.63
0.51 0.50 0.49 0.50 0.51 0.52 0.53 0.56 0.60 0.61 0.62 0.63 0.66 0.69 0.70 0.71 0.74 0.77 0.78 0.78 0.78 0.76 0.73 0.73 0.74 0.73 0.72 0.70 0.69 0.69 0.71 0.74 0.76 0.78 0.79 0.80 0.82 0.85 0.85 0.85 0.85 0.84 0.85 0.87 0.92 0.96 1.00 1.03 1.04 1.02 1.01 1.01 1.01 1.01 1.01 1.02 1.04 1.05 1.05 1.03 1.02 1.04 1.04 1.03 1.01 0.99 0.96 0.93 0.89 0.87 0.86 0.85 0.83 0.80 0.77 0.73 0.70 0.68 0.65 0.64 0.62 0.61 0.61 0.60 0.61 0.60 0.59
0.54 0.52 0.52 0.51 0.52 0.55 0.58 0.60 0.65 0.68 0.69 0.71 0.74 0.77 0.78 0.79 0.79 0.81 0.83 0.82 0.81 0.78 0.76 0.75 0.73 0.70 0.70 0.72 0.74 0.76 0.78 0.79 0.80 0.80 0.81 0.83 0.85 0.84 0.84 0.84 0.84 0.83 0.83 0.82 0.88 0.97 0.99 1.02 1.04 1.04 1.02 1.01 1.00 1.00 1.02 1.03 1.03 1.04 1.04 1.01 0.99 0.97 0.96 0.93 0.91 0.88 0.87 0.86 0.84 0.83 0.81 0.78 0.75 0.72 0.70 0.67 0.65 0.64 0.63 0.61 0.61 0.60 0.60 0.60 0.58 0.56 0.55
0.56 0.55 0.53 0.52 0.53 0.56 0.59 0.65 0.71 0.75 0.78 0.78 0.80 0.81 0.81 0.80 0.79 0.80 0.80 0.80 0.79 0.80 0.80 0.77 0.76 0.76 0.77 0.79 0.79 0.79 0.80 0.83 0.83 0.82 0.82 0.82 0.83 0.82 0.82 0.81 0.80 0.81 0.81 0.82 0.91 0.96 0.98 1.00 1.00 1.01 1.00 1.00 0.98 0.98 1.00 1.02 1.00 0.99 0.98 0.97 0.94 0.92 0.89 0.87 0.85 0.83 0.82 0.80 0.79 0.76 0.73 0.71 0.68 0.65 0.64 0.62 0.61 0.60 0.59 0.59 0.58 0.56 0.54 0.53 0.52 0.52 0.51
0.58 0.58 0.57 0.58 0.59 0.59 0.64 0.72 0.76 0.77 0.78 0.79 0.80 0.79 0.83 0.83 0.82 0.81 0.80 0.80 0.82 0.83 0.81 0.80 0.81 0.79 0.78 0.77 0.77 0.80 0.81 0.83 0.83 0.81 0.81 0.81 0.83 0.81 0.79 0.82 0.85 0.87 0.89 0.94 0.94 0.94 0.94 0.95 0.95 0.94 0.94 0.95 0.97 0.99 1.01 0.99 0.98 0.96 0.93 0.90 0.88 0.86 0.84 0.83 0.81 0.80 0.78 0.76 0.74 0.72 0.70 0.67 0.65 0.62 0.59 0.57 0.55 0.53 0.52 0.51 0.50 0.50 0.49 0.49 0.47 0.46 0.45
0.62 0.61 0.62 0.63 0.61 0.64 0.70 0.74 0.76 0.75 0.77 0.77 0.77 0.81 0.87 0.87 0.84 0.81 0.80 0.81 0.85 0.87 0.84 0.83 0.80 0.77 0.78 0.78 0.78 0.79 0.82 0.82 0.82 0.81 0.80 0.81 0.82 0.82 0.83 0.85 0.89 0.93 0.95 0.94 0.93 0.94 0.94 0.94 0.93 0.93 0.93 0.94 0.95 0.95 0.96 0.94 0.92 0.90 0.88 0.86 0.84 0.83 0.82 0.80 0.79 0.76 0.75 0.74 0.72 0.70 0.67 0.64 0.59 0.54 0.49 0.46 0.46 0.46 0.47 0.47 0.46 0.45 0.44 0.44 0.44 0.44 0.44
0.72 0.68 0.66 0.66 0.69 0.74 0.78 0.80 0.78 0.80 0.80 0.79 0.81 0.88 0.91 0.86 0.88 0.85 0.83 0.83 0.86 0.88 0.87 0.86 0.82 0.81 0.81 0.81 0.81 0.81 0.83 0.83 0.83 0.83 0.84 0.84 0.83 0.83 0.80 0.80 0.89 0.93 0.93 0.94 0.95 0.95 0.95 0.93 0.92 0.89 0.88 0.89 0.89 0.88 0.87 0.86 0.85 0.83 0.82 0.81 0.80 0.79 0.78 0.77 0.75 0.74 0.72 0.71 0.68 0.64 0.57 0.50 0.45 0.43 0.43 0.44 0.45 0.44 0.42 0.40 0.39 0.40 0.41 0.41 0.42 0.42 0.41
0.78 0.78 0.77 0.72 0.68 0.68 0.75 0.85 0.86 0.84 0.85 0.87 0.90 0.92 0.93 0.94 0.92 0.87 0.87 0.88 0.88 0.89 0.88 0.88 0.87 0.85 0.85 0.85 0.84 0.83 0.82 0.83 0.84 0.85 0.87 0.85 0.82 0.81 0.78 0.82 0.91 0.92 0.93 0.91 0.91 0.90 0.90 0.89 0.89 0.87 0.86 0.86 0.85 0.83 0.81 0.80 0.79 0.78 0.77 0.76 0.75 0.74 0.72 0.71 0.69 0.68 0.66 0.61 0.56 0.50 0.47 0.46 0.44 0.42 0.41 0.39 0.37 0.36 0.37 0.38 0.39 0.39 0.38 0.38 0.37 0.36 0.36
0.83 0.83 0.88 0.86 0.78 0.74 0.77 0.83 0.87 0.87 0.87 0.88 0.90 0.92 0.94 0.96 0.92 0.91 0.90 0.90 0.89 0.88 0.87 0.88 0.89 0.88 0.86 0.84 0.82 0.80 0.80 0.82 0.83 0.84 0.84 0.86 0.87 0.87 0.84 0.84 0.88 0.88 0.87 0.86 0.85 0.84 0.82 0.80 0.78 0.77 0.76 0.75 0.74 0.73 0.72 0.70 0.69 0.68 0.67 0.67 0.66 0.65 0.64 0.62 0.60 0.57 0.53 0.50 0.49 0.48 0.46 0.44 0.40 0.36 0.33 0.32 0.33 0.34 0.36 0.36 0.36 0.36 0.35 0.35 0.34 0.34 0.33
0.89 0.85 0.87 0.89 0.88 0.85 0.81 0.80 0.84 0.88 0.90 0.91 0.95 0.98 0.97 0.94 0.93 0.92 0.90 0.89 0.88 0.87 0.85 0.84 0.85 0.83 0.83 0.82 0.80 0.79 0.80 0.82 0.82 0.84 0.82 0.82 0.83 0.87 0.90 0.88 0.88 0.86 0.83 0.80 0.76 0.72 0.69 0.67 0.65 0.64 0.61 0.58 0.56 0.55 0.54 0.54 0.54 0.54 0.54 0.54 0.54 0.54 0.53 0.52 0.51 0.50 0.49 0.48 0.46 0.44 0.42 0.38 0.34 0.33 0.32 0.32 0.33 0.33 0.33 0.34 0.34 0.34 0.33 0.33 0.33 0.32 0.32
0.90 0.91 0.92 0.92 0.93 0.90 0.87 0.86 0.88 0.90 0.94 0.99 1.00 0.99 0.98 0.95 0.94 0.93 0.90 0.88 0.86 0.86 0.85 0.84 0.83 0.82 0.82 0.83 0.83 0.84 0.85 0.86 0.85 0.83 0.78 0.75 0.74 0.77 0.86 0.85 0.81 0.78 0.74 0.69 0.65 0.63 0.62 0.61 0.59 0.57 0.55 0.54 0.54 0.53 0.52 0.51 0.50 0.49 0.49 0.49 0.49 0.48 0.48 0.48 0.47 0.46 0.44 0.43 0.41 0.39 0.37 0.36 0.35 0.34 0.33 0.33 0.32 0.31 0.31 0.31 0.32 0.32 0.32 0.31 0.31 0.30 0.30
0.92 0.93 0.94 0.94 0.92 0.93 0.95 0.95 0.95 0.95 0.95 0.93 0.92 0.95 0.96 0.95 0.92 0.91 0.89 0.88 0.85 0.86 0.86 0.85 0.84 0.84 0.84 0.84 0.86 0.87 0.86 0.86 0.85 0.85 0.82 0.78 0.73 0.73 0.77 0.75 0.73 0.70 0.67 0.63 0.60 0.59 0.58 0.57 0.56 0.54 0.53 0.52 0.50 0.48 0.46 0.45 0.43 0.42 0.42 0.42 0.43 0.43 0.42 0.43 0.42 0.41 0.40 0.38 0.37 0.36 0.36 0.35 0.34 0.33 0.32 0.31 0.31 0.30 0.30 0.30 0.30 0.29 0.29 0.29 0.29 0.29 0.29
0.89 0.89 0.91 0.93 0.93 0.95 0.94 0.95 0.95 0.91 0.91 0.90 0.85 0.84 0.87 0.88 0.88 0.88 0.88 0.89 0.87 0.86 0.86 0.86 0.85 0.86 0.88 0.87 0.84 0.81 0.80 0.79 0.81 0.82 0.80 0.77 0.77 0.74 0.73 0.71 0.70 0.66 0.62 0.60 0.59 0.58 0.57 0.57 0.55 0.53 0.51 0.49 0.46 0.44 0.42 0.40 0.39 0.39 0.39 0.38 0.38 0.38 0.38 0.38 0.38 0.38 0.38 0.38 0.37 0.36 0.34 0.33 0.32 0.32 0.31 0.30 0.29 0.29 0.28 0.27 0.27 0.27 0.28 0.28 0.29 0.29 0.28
0.87 0.86 0.88 0.88 0.86 0.89 0.89 0.88 0.86 0.83 0.81 0.78 0.79 0.80 0.82 0.84 0.85 0.86 0.87 0.87 0.85 0.85 0.84 0.85 0.85 0.86 0.87 0.88 0.87 0.85 0.82 0.77 0.70 0.71 0.76 0.73 0.72 0.71 0.70 0.68 0.66 0.63 0.61 0.61 0.60 0.60 0.59 0.56 0.54 0.51 0.49 0.46 0.44 0.43 0.41 0.40 0.39 0.38 0.36 0.35 0.34 0.35 0.35 0.36 0.37 0.36 0.36 0.34 0.33 0.31 0.30 0.29 0.28 0.28 0.27 0.27 0.27 0.27 0.27 0.26 0.26 0.26 0.26 0.25 0.25 0.25 0.25
0.84 0.83 0.83 0.85 0.85 0.84 0.82 0.81 0.78 0.76 0.75 0.78 0.79 0.80 0.82 0.82 0.82 0.82 0.82 0.82 0.82 0.82 0.82 0.83 0.83 0.83 0.85 0.85 0.83 0.82 0.82 0.80 0.73 0.68 0.72 0.72 0.70 0.68 0.67 0.66 0.63 0.62 0.60 0.59 0.58 0.57 0.56 0.53 0.51 0.49 0.47 0.45 0.43 0.43 0.42 0.40 0.37 0.35 0.34 0.34 0.34 0.34 0.34 0.34 0.33 0.32 0.31 0.29 0.29 0.28 0.28 0.27 0.27 0.26 0.26 0.26 0.26 0.27 0.27 0.26 0.26 0.26 0.26 0.26 0.26 0.26 0.27
0.83 0.82 0.80 0.79 0.78 0.76 0.74 0.72 0.71 0.72 0.74 0.75 0.75 0.78 0.80 0.79 0.74 0.75 0.77 0.77 0.78 0.79 0.79 0.79 0.80 0.80 0.80 0.80 0.80 0.80 0.78 0.75 0.74 0.72 0.71 0.69 0.69 0.66 0.65 0.63 0.62 0.61 0.57 0.56 0.54 0.53 0.53 0.51 0.48 0.46 0.44 0.43 0.43 0.42 0.39 0.37 0.35 0.35 0.35 0.35 0.34 0.32 0.32 0.31 0.31 0.30 0.30 0.29 0.28 0.28 0.27 0.27 0.27 0.27 0.27 0.27 0.27 0.27 0.27 0.27 0.27 0.28 0.28 0.28 0.28 0.28 0.28
0.74 0.72 0.72 0.72 0.73 0.74 0.75 0.74 0.74 0.74 0.74 0.74 0.75 0.76 0.75 0.72 0.70 0.72 0.73 0.74 0.75 0.73 0.72 0.73 0.75 0.77 0.78 0.78 0.78 0.77 0.76 0.73 0.73 0.73 0.72 0.72 0.71 0.69 0.67 0.66 0.65 0.61 0.56 0.53 0.51 0.49 0.50 0.49 0.47 0.46 0.44 0.42 0.41 0.38 0.37 0.36 0.35 0.35 0.34 0.33 0.32 0.31 0.31 0.31 0.30 0.29 0.29 0.29 0.28 0.28 0.28 0.28 0.28 0.28 0.28 0.28 0.29 0.28 0.29 0.28 0.28 0.28 0.27 0.28 0.28 0.28 0.29
0.72 0.73 0.73 0.72 0.72 0.72 0.72 0.72 0.72 0.72 0.73 0.72 0.72 0.72 0.71 0.71 0.70 0.70 0.72 0.73 0.72 0.70 0.70 0.69 0.69 0.73 0.75 0.74 0.73 0.73 0.74 0.74 0.74 0.74 0.74 0.74 0.72 0.69 0.67 0.65 0.61 0.57 0.53 0.50 0.49 0.49 0.49 0.49 0.48 0.45 0.42 0.40 0.37 0.36 0.36 0.36 0.35 0.34 0.32 0.32 0.31 0.31 0.31 0.30 0.30 0.30 0.29 0.29 0.29 0.29 0.29 0.29 0.29 0.29 0.29 0.29 0.30 0.29 0.29 0.29 0.29 0.29 0.29 0.29 0.29 0.29 0.30
Wind_Speed
13 14 14 13 12 13 13 13 14 14 15 16 17 18 18 16 17 21 20 18 19 20 20 20 19 18 19 19 18 17 17 16 16 15 16 17 17 18 18 18 18 18 18 19 19 20 21 21 22 24 25 26 26 26 26 26 26 26 25 25 25 25 26 26 26 26 27 27 27 27 27 27 27 26 25 25 25 25 25 25 25 25 26 26 24 23 22
13 14 15 15 15 15 15 16 16 16 17 18 19 20 19 19 21 22 20 19 21 21 21 21 20 19 20 19 18 17 17 17 16 16 17 18 18 19 19 19 19 18 18 19 20 21 21 22 23 24 26 27 27 27 26 26 26 26 25 25 25 25 25 26 26 26 26 27 27 27 27 27 26 26 25 25 25 25 24 24 24 25 25 25 24 22 22
15 16 16 16 16 17 17 18 19 19 19 20 21 21 20 20 22 23 21 21 22 22 21 21 21 19 18 18 18 18 18 17 17 17 18 19 19 19 19 19 19 19 19 20 20 21 22 22 24 25 26 27 27 27 27 26 26 26 25 25 26 26 26 26 26 26 27 27 27 27 26 26 26 26 25 25 25 24 24 24 24 24 25 25 24 22 21
18 18 17 17 18 18 19 20 21 21 21 21 21 20 19 19 20 21 20 21 22 21 20 20 20 19 18 18 18 18 18 18 18 19 19 20 20 19 19 19 19 19 20 20 21 22 22 23 24 26 27 27 27 27 27 27 26 26 26 26 26 26 26 26 27 27 27 27 27 26 26 26 26 26 26 25 25 25 24 24 24 24 24 24 23 22 21
19 19 18 18 18 18 19 21 21 20 20 20 20 20 20 19 19 19 21 21 21 21 19 19 19 18 18 19 18 17 17 18 18 19 20 19 19 19 19 19 19 20 20 20 21 22 23 24 25 26 27 27 27 27 27 26 26 26 26 26 27 27 27 27 27 27 27 27 27 26 26 26 26 26 26 25 25 25 24 24 24 24 24 23 23 22 20
20 20 18 18 19 19 20 21 19 18 18 19 20 21 21 21 20 20 22 22 22 21 20 19 19 18 18 19 19 19 18 17 18 18 19 19 19 19 19 20 19 19 20 21 22 23 24 25 26 27 27 26 27 27 27 26 26 26 27 27 27 28 28 28 28 28 28 28 27 27 26 26 27 27 26 26 25 25 24 24 23 23 23 22 22 21 20
19 19 17 18 20 21 21 21 19 18 19 20 21 23 23 22 22 22 23 24 23 22 20 20 20 20 20 19 19 18 18 18 17 17 17 18 18 19 19 19 19 20 20 21 23 23 24 25 26 27 26 26 27 27 26 26 26 26 27 27 28 28 28 28 28 28 28 28 27 27 26 26 26 27 26 26 25 25 24 23 23 22 22 21 21 21 20
19 18 17 19 21 21 21 20 19 18 20 21 22 24 24 22 21 20 21 22 22 20 20 20 20 19 19 18 17 18 18 18 17 16 17 17 18 19 19 19 19 20 21 22 23 24 25 26 26 26 26 26 26 26 26 26 26 26 27 27 28 29 29 29 29 28 28 27 27 27 26 26 26 27 27 26 25 25 24 23 22 21 20 20 21 21 20
19 19 20 21 22 21 20 20 18 18 19 20 20 22 23 21 19 18 19 20 19 17 18 18 17 16 16 16 18 18 17 17 16 16 17 17 18 19 19 19 20 21 22 23 23 24 25 26 26 25 25 26 26 26 25 26 26 27 27 28 29 29 30 30 29 28 27 26 27 27 27 26 26 27 26 26 25 24 23 22 21 20 19 20 20 20 20
19 19 20 20 20 20 21 21 20 19 19 18 17 20 22 21 19 18 18 18 17 15 15 15 15 14 14 16 18 17 17 16 16 16 17 18 19 19 19 20 21 21 22 23 24 24 25 25 25 25 25 25 25 25 26 26 27 27 28 29 29 30 30 29 28 27 26 26 26 27 27 26 26 26 26 25 24 23 22 21 20 19 19 19 19 19 19
20 19 20 20 20 21 22 22 21 19 18 17 17 19 21 20 17 17 16 16 15 14 14 14 13 13 14 16 17 17 16 15 15 16 17 18 19 19 20 20 21 22 23 24 24 24 25 26 26 25 25 25 25 26 27 27 27 28 29 29 30 30 30 28 27 26 25 25 26 26 26 25 25 25 25 24 23 22 22 20 19 18 18 18 19 19 19
20 20 21 22 22 23 22 22 21 19 18 17 17 19 20 18 16 16 15 15 15 14 14 13 13 13 15 16 17 16 15 15 15 16 17 17 18 19 20 21 22 22 23 23 24 25 26 26 26 26 26 25 26 27 28 27 28 29 29 29 30 30 29 28 26 26 25 26 26 26 26 25 25 25 24 23 22 21 21 19 17 17 17 17 18 18 18
21 21 23 23 24 23 23 22 21 18 17 18 20 20 20 18 17 16 16 15 15 14 14 14 14 15 15 15 15 14 14 14 15 16 17 18 18 19 20 22 22 22 23 24 25 26 27 27 26 26 26 26 27 28 28 28 29 30 30 30 30 30 29 28 27 26 26 26 26 26 26 25 25 24 23 22 21 20 19 18 17 16 16 17 17 18 17
20 21 23 24 24 24 23 21 20 19 19 21 22 21 20 18 17 17 16 16 15 15 15 15 15 15 15 15 14 13 14 15 16 17 18 18 19 21 22 23 23 23 24 25 26 27 28 27 27 27 27 27 27 28 28 29 30 31 31 31 30 29 28 28 27 27 27 27 27 26 25 24 24 23 22 21 20 19 18 17 16 16 16 17 17 17 17
20 21 22 22 23 23 21 18 19 21 21 22 21 20 19 18 18 17 17 16 16 15 16 16 16 15 15 15 14 15 15 16 17 18 19 20 21 22 23 24 24 25 25 27 28 28 27 27 27 27 27 27 27 28 29 30 31 31 31 31 30 29 28 28 28 28 28 27 27 26 25 24 23 22 21 20 19 18 17 16 16 16 16 16 17 17 17
22 22 23 23 23 24 22 21 21 23 24 23 21 19 19 19 18 17 17 17 17 16 16 16 16 16 16 16 16 16 17 17 18 19 20 21 22 23 24 25 26 26 27 28 28 28 27 27 27 27 27 27 27 28 29 30 31 31 31 31 30 30 29 29 29 29 29 27 26 25 24 23 22 21 20 19 18 17 16 16 16 16 16 16 17 17 17
24 25 26 27 26 27 27 26 26 25 25 24 22 20 20 19 19 18 18 17 17 16 16 15 15 16 17 17 17 17 18 18 19 20 22 23 24 25 26 27 27 28 28 29 28 28 27 27 27 27 27 27 28 29 30 30 31 31 31 31 31 31 30 30 30 30 28 27 26 24 23 22 21 20 20 19 17 16 16 15 15 16 16 16 16 17 17
26 27 27 27 28 28 27 28 27 26 25 23 22 21 20 19 18 18 17 17 16 16 16 16 16 17 17 17 18 18 19 20 21 22 24 25 26 26 27 28 28 28 29 29 28 28 28 27 27 27 27 27 28 29 30 30 30 31 32 31 31 31 31 30 30 29 27 26 25 23 22 21 20 19 19 18 17 16 16 15 15 15 15 16 16 16 17
24 25 26 25 26 26 26 25 25 24 23 22 22 21 20 19 18 18 17 17 16 16 17 16 17 17 17 17 18 20 21 22 23 24 25 25 26 27 27 28 28 29 29 29 28 28 28 28 27 27 27 28 29 29 30 30 30 31 31 31 31 31 31 30 30 28 26 25 24 22 21 21 20 19 18 17 16 16 16 15 15 15 15 16 16 17 17
23 25 26 25 25 25 25 23 23 22 21 20 20 20 19 18 17 17 17 17 17 17 17 17 17 17 18 18 19 21 22 23 24 24 25 26 26 27 28 28 29 29 29 29 28 28 28 27 27 27 28 28 29 30 30 30 30 30 31 31 31 31 30 30 28 27 25 24 22 21 21 20 19 19 18 17 16 16 15 15 15 15 15 16 16 16 16
23 24 24 23 23 23 23 23 22 22 21 20 19 19 19 18 18 18 17 17 17 17 17 17 17 18 19 20 21 22 23 24 25 25 25 26 26 27 28 29 29 30 29 29 28 28 28 28 28 28 28 29 29 30 30 30 30 30 30 30 30 30 29 28 27 25 24 22 21 20 20 19 19 19 18 16 16 15 15 15 15 15 15 15 16 16 16
23 23 22 22 22 22 23 22 22 22 21 20 19 19 19 19 19 18 17 17 18 18 18 19 19 19 21 22 22 23 24 24 25 25 26 26 27 28 28 29 29 29 28 28 28 28 28 28 28 28 28 29 29 30 30 29 29 29 30 30 30 30 28 27 26 25 23 22 21 20 19 19 19 18 17 16 15 15 15 15 15 15 15 15 15 15 15
24 25 25 24 24 24 24 24 23 22 22 21 20 20 20 20 20 19 19 18 19 19 20 20 20 20 22 22 23 23 24 24 25 26 26 27 27 28 28 28 28 27 27 27 27 28 28 28 28 28 28 29 29 29 29 29 29 29 30 30 30 29 28 27 27 25 23 21 20 19 19 18 18 17 16 15 15 14 14 14 14 14 14 15 15 15 15
25 26 27 26 26 27 27 25 24 23 23 22 21 21 21 21 21 21 20 20 20 21 21 22 22 22 22 23 23 24 24 25 26 26 27 27 27 27 27 27 27 27 27 27 27 27 27 27 28 28 28 28 29 29 28 28 28 29 29 29 29 29 29 28 27 25 23 21 19 18 18 17 17 16 15 14 13 13 13 13 13 14 14 15 15 15 15
26 27 27 27 27 28 27 25 24 24 24 23 22 22 22 22 22 22 22 22 22 22 22 22 23 23 23 24 24 25 25 26 27 26 26 27 27 27 27 27 27 27 27 26 26 26 26 27 28 28 28 28 28 27 27 27 28 28 28 28 29 29 29 29 27 25 23 20 19 18 17 16 15 14 14 14 13 12 12 12 13 13 14 14 15 15 15
28 28 28 28 28 27 26 25 24 25 25 24 24 24 23 23 23 23 23 23 23 23 23 23 24 24 24 25 25 26 26 27 27 27 27 27 27 27 27 27 26 26 26 25 25 26 26 27 27 28 28 27 27 27 27 27 27 27 27 27 27 27 26 25 23 21 19 18 17 16 15 15 14 13 13 12 12 11 11 12 12 13 13 14 14 15 15
30 29 28 27 27 26 26 26 26 26 26 25 25 25 24 24 23 23 23 23 23 24 24 24 24 25 25 26 26 26 27 27 27 27 28 28 27 27 26 26 25 25 25 25 25 26 26 26 26 26 25 25 25 26 26 25 26 26 26 25 24 23 22 19 16 15 14 14 14 13 13 12 12 12 11 11 10 10 11 12 12 13 13 14 14 14 14
33 31 29 29 29 28 28 28 27 26 26 27 26 26 25 25 25 24 24 25 25 25 25 25 25 25 26 26 26 27 27 28 28 28 28 27 27 26 25 25 24 24 25 25 25 25 25 25 24 23 23 24 24 24 24 24 25 25 24 23 21 20 18 16 13 12 12 11 11 11 11 11 10 10 9 9 9 10 11 11 12 13 13 13 13 13 13
36 34 33 33 33 32 30 29 29 28 28 28 28 27 27 26 26 26 26 26 26 26 26 26 26 26 26 27 27 27 27 27 27 27 27 26 26 25 25 24 24 24 24 24 24 25 24 23 23 22 23 23 23 23 23 23 23 22 21 20 19 17 16 14 13 11 10 10 10 10 9 9 8 8 8 8 10 11 11 11 12 13 13 13 13 13 13
35 36 35 35 35 34 32 31 31 31 30 29 29 28 28 27 27 27 27 27 27 27 26 26 26 26 26 26 26 26 27 27 27 27 26 25 25 25 24 24 24 24 24 24 24 24 23 22 22 21 22 22 22 22 21 21 20 20 19 18 17 15 14 12 11 9 9 8 8 8 8 8 8 8 8 10 11 11 11 12 12 12 13 13 12 12 12
34 35 36 37 36 36 36 35 34 33 32 31 30 29 28 28 27 28 28 27 27 26 26 26 26 26 26 26 26 26 27 27 27 26 26 25 25 25 24 24 24 23 23 23 23 22 21 20 20 20 21 21 20 20 19 19 18 18 17 16 15 13 11 10 9 9 8 8 8 8 8 8 8 9 10 11 11 11 11 12 12 12 12 12 12 12 12
34 34 35 35 35 36 36 36 35 34 33 32 31 31 30 30 29 28 28 27 27 26 26 26 25 25 26 26 26 26 27 27 26 26 25 25 24 24 23 23 22 22 22 21 20 19 19 19 19 19 19 19 18 18 18 18 17 16 15 14 13 12 11 10 10 9 9 9 8 8 9 9 9 10 10 11 11 11 12 12 12 12 13 12 13 13 12
34 34 33 33 33 33 34 35 35 34 33 33 32 32 31 31 30 28 27 27 26 26 26 26 26 26 26 26 26 26 26 26 25 25 24 23 22 22 21 20 20 20 19 18 18 18 17 17 17 18 18 18 18 18 18 17 16 15 14 13 13 12 11 10 10 9 8 8 8 8 9 9 10 11 11 12 12 12 13 13 13 13 13 13 13 13 13
33 34 34 33 32 33 33 34 34 33 32 31 31 31 30 29 28 27 27 27 26 26 26 26 25 25 25 25 25 25 25 24 24 22 21 21 20 19 19 18 18 17 17 17 16 16 17 17 17 18 18 18 18 17 17 16 15 14 13 13 12 11 10 9 9 8 8 8 8 9 9 10 11 12 13 13 14 14 14 14 14 14 13 13 13 13 13
33 33 34 33 33 32 32 33 32 32 31 30 30 29 28 27 26 26 26 26 26 25 25 25 25 24 25 25 25 24 23 22 21 20 19 19 18 18 18 17 16 16 15 15 16 16 16 17 17 17 17 17 17 16 16 15 14 14 13 12 11 10 10 10 9 9 9 10 10 11 12 12 13 14 14 15 15 15 15 15 15 14 14 14 14 14 15
32 32 32 32 32 31 31 30 31 31 30 29 28 27 26 25 24 24 24 24 24 24 24 24 24 24 24 24 23 22 21 19 18 18 17 17 17 17 17 16 15 15 15 16 16 16 17 16 16 16 16 16 16 15 15 14 14 14 13 11 11 10 10 10 10 10 11 11 12 12 13 13 14 14 15 15 15 15 15 15 15 15 15 15 15 16 16
32 31 30 30 30 30 29 28 28 28 27 26 25 24 23 23 23 22 23 23 22 22 23 23 23 23 23 22 21 20 19 18 17 16 16 16 16 16 15 15 15 15 16 16 17 17 16 16 16 15 15 15 14 13 13 12 12 12 11 11 11 11 10 10 10 10 11 11 12 12 13 13 14 15 15 15 15 15 15 16 15 15 16 16 16 16 16
30 29 29 28 27 28 27 26 26 25 25 23 23 23 23 22 22 21 21 21 21 21 22 22 22 21 21 20 19 18 17 16 16 16 16 16 15 15 14 15 15 15 15 16 16 16 15 14 14 14 13 13 12 12 11 10 10 11 11 11 11 11 11 11 11 11 11 12 12 13 13 14 15 15 15 15 15 15 15 15 15 15 15 16 16 16 16
27 27 26 26 25 25 25 24 24 24 24 23 22 22 21 21 20 19 19 20 20 20 20 20 19 19 18 17 17 16 16 16 15 15 15 15 14 14 14 14 14 14 14 14 14 13 13 12 12 12 12 11 11 11 11 10 10 11 11 11 11 12 12 12 12 12 12 13 13 13 14 14 15 15 15 15 15 15 15 15 15 15 15 15 15 15 15
23 23 22 22 22 22 22 22 23 23 23 22 21 20 20 19 18 18 18 19 19 18 18 17 17 17 16 16 16 15 15 15 15 14 14 13 13 13 13 13 13 13 12 12 12 12 11 11 11 11 11 11 11 11 11 11 11 11 11 12 12 12 12 12 12 13 13 13 13 14 14 15 15 15 14 14 14 14 14 14 15 15 15 15 15 15 15
18 18 18 18 19 19 18 18 19 20 19 19 18 18 18 18 17 16 16 17 17 16 16 15 15 15 15 14 14 14 14 14 14 13 13 12 12 12 12 12 12 12 11 11 11 11 10 11 11 11 11 11 11 11 11 11 12 12 12 12 12 12 12 12 13 13 13 14 14 14 14 14 14 14 14 14 14 14 14 14 14 14 15 15 15 16 16
14 14 14 15 16 16 15 15 15 15 16 16 17 17 17 17 16 16 15 15 15 15 14 13 13 13 13 13 13 13 13 13 13 12 12 12 12 12 12 12 12 11 11 11 11 11 11 12 12 12 12 12 12 12 12 12 13 13 13 13 13 13 13 13 13 14 14 14 14 14 14 14 14 14 14 14 14 14 14 14 15 15 15 16 16 17 17
12 11 11 12 13 14 15 16 16 16 16 17 16 17 17 17 16 15 14 14 13 13 12 12 12 11 12 12 12 12 12 12 11 11 11 11 11 11 11 12 12 11 11 11 12 12 12 12 12 12 12 12 12 12 13 13 14 14 14 14 14 14 14 14 14 15 15 15 15 15 15 15 15 15 15 15 14 14 14 15 15 16 16 16 17 17 17
11 11 11 11 12 13 15 16 16 16 17 17 16 15 16 15 15 14 13 13 12 12 11 11 12 12 12 12 11 11 11 11 10 10 11 11 11 12 12 12 12 12 12 12 13 13 13 13 13 12 12 12 12 13 14 14 14 14 15 15 15 15 15 15 15 15 16 16 16 16 16 15 15 15 14 14 15 15 15 15 16 16 16 16 17 17 17
10 10 11 11 12 12 13 14 14 15 15 14 13 13 14 14 14 14 13 12 12 12 12 12 12 12 12 11 11 11 11 10 10 10 11 11 12 12 12 11 12 12 12 12 13 13 13 13 13 12 13 13 13 14 15 15 15 15 15 15 16 16 16 16 16 16 16 16 16 16 15 15 15 15 15 15 15 16 16 16 16 16 16 16 16 16 17
7 8 9 10 10 10 11 11 11 12 12 12 12 12 13 13 13 13 13 12 12 12 12 12 12 12 11 11 10 10 10 11 11 11 11 11 11 11 11 12 12 12 12 12 13 13 13 13 13 13 14 14 15 15 16 16 16 16 16 16 16 16 16 16 16 15 15 15 15 15 15 15 15 15 15 15 15 15 15 16 16 16 16 16 16 16 16
5 5 6 7 7 8 9 9 10 10 11 11 12 12 12 12 12 12 12 12 12 12 12 12 12 12 11 11 11 11 10 10 11 11 11 11 11 11 12 12 12 12 13 13 14 14 14 14 14 14 15 15 16 16 17 16 16 16 16 16 16 15 15 15 14 14 14 14 14 14 14 14 14 15 15 15 15 15 15 15 15 15 15 15 15 15 15
4 4 5 5 6 7 8 8 9 9 10 10 11 11 11 11 11 11 12 12 12 12 12 12 12 11 11 11 11 11 11 11 11 12 12 12 12 12 12 13 13 13 14 14 15 15 15 15 15 15 16 16 17 17 17 17 16 16 15 15 14 13 13 13 13 13 13 13 13 13 13 14 14 14 14 14 14 14 14 14 14 14 14 14 14 14 14
3 3 4 5 5 6 7 7 7 8 8 9 9 10 10 10 11 11 12 12 12 12 12 12 11 11 11 11 11 12 12 12 12 12 13 13 13 13 13 13 13 14 15 16 16 16 16 16 16 16 16 16 17 17 17 17 16 15 14 13 13 12 12 12 12 12 12 12 12 13 13 13 13 13 13 12 12 13 13 13 13 13 13 13 13 14 14
2 2 3 3 4 5 5 6 6 7 8 8 9 9 10 10 11 11 11 11 11 11 11 11 11 12 12 12 12 12 12 13 13 13 13 13 14 14 14 14 14 15 15 16 17 17 16 16 16 16 16 17 17 17 16 16 15 14 13 12 12 11 11 11 11 11 12 12 12 12 11 11 11 11 11 11 11 12 12 12 12 12 12 13 13 13 13
1 1 2 3 3 4 5 6 6 7 8 8 9 9 10 10 10 11 11 11 11 11 11 11 11 12 12 12 12 13 13 14 14 14 14 14 14 15 15 16 16 16 16 16 16 16 16 16 16 16 16 17 16 16 15 14 14 13 12 12 11 11 11 11 11 11 11 11 11 11 11 11 11 11 11 11 11 11 11 11 11 11 12 12 12 13 13
1 1 2 2 3 4 5 6 7 7 8 8 9 9 9 9 10 10 10 11 11 11 11 11 11 12 12 13 13 14 14 15 15 14 14 15 15 16 17 17 17 17 17 16 16 16 16 16 16 16 16 16 15 14 14 13 13 12 12 12 11 11 11 11 11 11 11 11 11 10 10 10 10 10 10 10 10 10 11 11 11 11 12 12 12 13 13
Wind_Direction
248 249 256 259 259 262 261 258 260 264 265 267 269 271 272 272 272 276 278 274 274 279 281 278 275 272 270 269 266 266 266 263 261 260 259 257 257 258 261 264 267 271 276 280 283 287 292 298 301 305 310 314 315 315 315 315 315 315 315 316 316 318 318 318 318 318 319 320 321 322 322 321 321 320 318 318 318 319 319 320 322 324 325 325 322 321 321
251 255 260 261 260 264 267 266 266 266 268 269 272 275 275 273 275 279 280 276 277 280 279 277 276 274 271 270 268 267 265 261 259 257 255 255 256 257 259 263 267 271 275 279 283 287 292 297 300 304 309 313 314 314 314 314 314 313 314 314 315 317 318 318 317 317 318 319 320 321 321 321 320 319 318 318 318 318 318 319 322 323 325 325 324 322 322
256 259 257 258 261 261 264 271 274 273 275 276 278 280 280 278 279 281 280 279 281 282 278 277 279 277 272 270 267 263 261 257 254 254 254 254 255 257 259 263 266 271 276 280 283 287 292 296 300 304 308 311 312 312 312 312 312 312 313 313 314 316 316 316 316 316 317 318 319 320 320 320 319 319 318 317 318 318 318 319 321 322 323 324 324 322 321
256 260 257 261 268 268 269 274 275 273 276 278 279 279 277 276 277 279 280 280 281 283 281 280 280 276 270 269 267 264 260 256 252 251 253 253 254 256 259 262 267 272 276 280 283 287 292 295 299 303 307 309 310 311 311 310 310 311 312 312 313 314 315 315 314 315 316 317 317 318 319 319 318 318 317 317 316 316 316 318 319 320 320 322 323 321 320
256 261 262 266 271 271 272 273 271 272 276 278 280 280 275 274 276 277 278 278 279 282 282 280 279 276 273 270 266 263 259 255 253 253 252 252 253 255 258 263 268 272 275 278 282 286 291 295 298 303 306 307 308 309 309 309 309 310 311 312 312 312 313 313 313 314 316 316 316 317 317 317 317 317 317 315 315 315 315 317 318 318 318 320 322 321 319
258 263 267 268 267 266 269 273 272 272 274 274 276 277 274 273 276 278 279 279 281 281 278 275 274 272 272 271 267 264 260 255 253 253 252 251 252 256 261 266 269 272 275 278 282 286 290 294 298 302 304 305 306 307 308 309 309 310 310 311 311 311 312 312 311 313 315 315 316 316 316 316 315 315 315 315 314 314 314 316 317 316 316 318 320 320 319
257 262 264 264 263 264 271 277 276 274 276 275 275 277 277 275 276 279 281 280 279 278 274 273 274 273 275 277 273 268 263 256 251 250 250 251 253 258 264 267 270 273 275 278 282 286 290 294 298 301 302 304 305 306 307 308 309 309 310 311 311 311 311 311 310 312 314 315 315 315 316 316 315 314 314 314 314 313 313 314 315 315 315 316 319 319 318
256 259 257 259 266 271 275 278 277 278 282 281 280 282 281 277 274 275 278 279 278 276 273 274 275 274 276 281 279 272 267 261 254 249 249 252 257 260 263 266 270 272 274 277 281 285 290 294 297 299 301 302 304 305 306 307 308 309 310 311 312 312 311 311 310 310 312 313 314 314 315 314 314 314 313 313 313 313 312 313 313 313 313 315 318 319 318
254 257 257 263 271 274 275 276 276 279 281 278 278 281 281 278 274 272 276 280 277 274 273 273 272 272 278 285 283 276 269 263 257 252 252 255 258 261 263 267 270 273 275 279 283 287 291 294 296 298 300 301 302 304 305 306 307 308 309 311 312 312 312 311 310 309 310 311 313 314 314 313 312 312 313 313 314 313 312 311 310 310 312 315 318 321 320
255 257 262 267 269 269 271 273 276 281 281 276 275 279 281 281 276 270 273 277 275 272 272 269 267 273 281 284 281 275 269 265 259 255 256 258 260 263 266 270 274 276 278 282 285 288 291 293 295 297 299 300 300 302 304 305 306 307 309 311 313 313 312 311 310 308 308 310 312 314 314 313 312 312 312 313 314 314 313 311 308 307 310 314 318 322 322
255 255 259 263 264 267 271 273 277 281 279 276 281 284 283 282 277 270 271 274 272 269 266 261 265 274 279 279 277 271 266 262 257 255 259 263 264 267 269 272 275 278 281 285 287 290 292 293 294 296 297 298 299 300 301 303 305 307 309 311 312 313 312 311 309 308 308 309 311 312 312 312 312 313 313 313 314 315 314 311 307 306 308 312 317 322 325
255 257 260 263 266 270 273 275 277 278 276 276 279 280 280 280 277 273 271 270 267 264 261 262 268 271 271 274 275 269 263 261 258 258 262 265 266 270 272 275 279 282 285 287 289 290 291 292 294 295 296 297 298 298 300 302 304 306 309 310 311 312 311 310 309 307 307 308 309 310 310 311 312 313 313 314 315 315 314 311 308 307 307 310 314 319 325
256 257 260 266 270 271 274 276 276 274 276 275 271 271 276 278 275 274 273 269 264 260 259 263 268 268 271 277 276 269 264 264 263 263 265 267 270 273 275 277 282 286 287 287 288 289 291 292 294 296 296 297 296 297 299 301 303 306 308 309 310 310 310 309 307 306 305 306 306 306 307 308 310 311 311 313 314 314 313 311 309 308 308 308 311 316 321
259 259 262 268 273 273 272 274 274 272 273 273 271 273 278 275 270 272 273 270 265 262 260 262 265 267 273 279 277 270 267 267 266 266 269 272 275 278 280 282 285 287 288 288 289 290 291 292 294 296 297 296 296 296 298 300 303 306 308 308 308 309 308 306 305 304 304 304 304 303 303 305 308 309 309 310 311 311 311 311 310 310 309 308 310 313 317
261 262 263 267 273 275 273 273 273 273 272 273 274 275 276 274 271 270 270 268 266 264 263 265 268 270 274 278 276 273 271 270 270 271 273 277 280 282 284 285 286 286 288 290 290 291 292 292 294 296 296 296 296 296 298 300 303 306 307 307 307 307 306 305 304 302 301 301 301 301 301 302 305 305 306 308 308 308 309 310 311 311 311 310 310 312 314
260 260 261 264 269 273 274 272 272 272 272 274 273 270 270 273 271 267 268 268 267 265 263 265 269 271 273 275 275 274 273 274 276 279 281 283 284 284 284 285 286 287 289 291 291 292 292 292 293 294 295 295 295 296 298 301 304 305 306 306 306 306 305 304 302 301 300 298 298 298 298 300 302 302 303 305 304 304 306 309 311 312 312 311 311 312 314
260 260 262 266 270 273 273 271 272 274 274 273 270 267 267 268 266 266 267 267 267 266 264 265 268 270 271 273 274 275 277 279 282 285 286 285 285 285 286 287 288 288 290 291 292 292 291 291 292 292 293 294 294 296 299 302 303 305 306 306 306 305 305 303 301 300 298 296 296 295 295 297 299 298 300 302 301 301 303 306 309 312 312 312 312 312 314
266 266 267 270 274 275 273 271 270 272 274 271 267 265 265 264 264 265 266 265 264 264 264 266 269 270 271 274 277 279 282 285 286 287 287 286 286 286 287 288 289 290 291 291 292 291 290 290 290 291 292 293 295 297 300 301 302 304 305 305 306 305 305 303 301 299 296 294 294 293 292 293 294 294 297 298 297 298 300 303 306 309 311 312 312 313 314
269 269 269 273 274 274 275 274 271 270 270 267 265 264 263 262 263 265 266 265 264 264 265 267 269 271 274 278 280 282 285 286 287 286 286 286 287 287 288 289 290 291 291 291 290 290 289 289 289 289 291 293 295 297 299 300 301 303 303 304 305 306 305 304 302 299 294 291 290 289 289 289 289 291 293 293 293 295 297 301 304 305 308 310 312 313 314
265 266 269 273 274 273 272 271 268 267 265 264 265 265 263 262 264 267 268 267 265 266 268 270 271 275 278 280 282 284 286 287 288 288 289 289 289 290 290 291 291 291 290 289 289 289 288 287 287 288 290 292 295 297 299 300 301 302 302 303 304 305 306 305 303 299 294 289 287 286 286 284 286 289 289 288 290 293 295 298 301 303 305 308 310 312 314
265 267 270 273 274 274 272 269 266 264 261 261 264 265 263 262 264 266 268 270 270 269 270 272 275 277 279 281 284 286 287 289 290 290 290 291 290 291 291 292 292 291 290 289 288 288 288 287 287 288 289 292 295 297 299 300 301 301 302 303 304 305 305 304 302 298 293 288 286 285 283 281 282 286 286 284 286 290 293 296 299 301 302 306 309 312 314
264 264 266 268 270 271 270 267 265 262 259 259 260 261 261 261 261 262 266 271 274 274 274 276 278 279 280 282 285 287 288 290 291 291 291 291 291 292 293 293 293 293 292 291 290 290 289 288 288 289 290 293 296 298 299 300 301 301 302 303 303 303 303 303 301 298 293 287 284 282 280 278 280 283 284 282 283 286 290 294 297 299 301 304 308 311 313
260 262 265 267 267 267 266 264 262 260 260 259 257 257 258 259 259 261 262 266 271 275 277 278 278 279 280 282 284 286 288 289 290 291 291 292 292 293 294 294 294 294 294 293 293 291 290 290 289 290 292 295 297 298 298 299 301 301 302 303 302 301 300 300 299 296 292 287 283 279 276 276 278 281 281 281 282 285 288 291 294 297 299 303 306 309 311
261 266 269 268 266 266 266 263 259 258 259 259 257 258 259 259 261 263 265 267 270 273 276 278 278 278 279 281 283 286 288 289 290 291 292 293 294 295 295 295 295 295 295 294 293 292 291 291 291 291 293 294 296 297 297 299 300 301 302 302 301 299 298 297 295 291 288 284 280 276 274 274 276 278 278 279 281 285 288 289 292 295 299 303 307 309 310
263 269 272 270 267 266 266 262 258 258 259 259 258 258 259 260 262 265 267 269 271 272 274 277 278 278 280 282 285 288 289 290 291 291 293 294 295 296 296 295 295 296 295 294 293 293 292 292 291 292 292 293 294 295 297 298 300 300 300 300 300 299 297 294 290 285 281 277 274 272 271 271 272 274 276 277 279 282 285 287 289 294 300 305 307 309 311
264 269 272 270 268 266 263 260 259 259 258 258 258 258 258 260 262 264 267 269 271 273 275 276 278 281 282 284 286 289 290 291 292 293 293 294 294 294 295 295 295 296 295 294 294 294 293 293 292 292 292 293 294 295 297 299 299 299 300 300 301 301 300 296 288 282 277 272 268 266 267 267 267 269 272 275 277 280 285 289 292 296 301 305 307 309 311
264 266 268 268 267 264 259 257 257 257 256 256 257 257 258 260 262 265 268 271 272 275 276 277 279 282 284 286 287 289 290 291 292 293 292 292 293 293 294 295 295 296 295 295 295 294 294 294 293 293 294 295 295 297 298 299 300 300 300 301 301 303 303 300 292 284 276 268 262 260 262 263 264 267 269 272 276 283 289 293 296 299 302 305 307 309 311
263 263 263 263 263 262 260 259 260 258 256 255 256 256 258 261 263 265 268 270 273 275 277 278 279 281 284 286 288 289 290 291 291 291 292 292 293 294 294 294 295 295 294 294 295 295 295 295 295 295 296 297 297 298 299 299 300 300 300 300 300 301 301 299 294 285 276 266 258 257 260 261 262 266 268 269 275 285 291 295 298 300 302 303 304 306 308
261 262 261 260 261 262 262 261 260 257 255 255 256 257 259 261 262 265 267 269 272 274 275 277 278 280 283 285 286 287 288 289 290 291 292 293 293 293 292 293 292 292 293 294 295 296 297 296 296 296 297 297 298 299 300 300 300 300 299 299 298 297 297 295 291 281 272 266 259 257 259 261 260 261 265 271 280 287 291 294 296 298 301 303 303 304 307
261 262 261 260 260 260 259 259 258 256 254 254 255 258 259 260 261 264 267 269 271 272 273 275 278 280 282 283 284 286 287 288 289 290 291 292 292 291 290 290 290 291 293 294 295 296 296 296 296 297 297 298 299 300 301 301 301 300 299 298 296 293 292 290 285 275 267 263 256 252 255 259 259 261 267 276 283 288 291 293 296 298 301 303 304 304 305
264 263 263 262 261 260 259 258 257 255 253 254 255 257 259 260 262 265 267 269 270 271 272 274 277 279 281 282 284 286 288 289 290 290 291 291 290 289 289 289 289 291 293 294 294 295 295 296 296 296 297 299 300 301 302 303 302 300 298 295 293 291 287 282 278 272 264 258 253 252 256 260 262 266 273 280 285 288 291 293 296 299 300 302 303 304 304
266 265 264 263 262 260 259 257 254 252 252 253 254 255 258 261 263 264 265 267 267 268 271 274 276 278 280 283 286 288 289 288 288 289 290 290 290 289 289 288 289 291 292 293 294 295 295 296 296 296 298 299 300 302 303 303 301 298 295 292 290 289 284 276 271 268 262 257 255 258 260 260 263 270 278 285 288 289 291 294 296 298 299 299 299 301 302
265 264 263 262 260 258 257 254 252 250 250 252 253 256 259 261 262 262 263 264 266 268 270 272 275 278 281 284 287 288 287 287 287 288 289 289 288 288 287 288 289 291 292 293 294 294 294 295 296 297 298 299 299 300 302 302 299 295 292 289 288 288 285 276 267 261 257 257 258 259 260 261 267 275 282 287 289 289 290 292 293 294 295 295 296 298 300
265 264 262 260 258 256 256 254 252 250 250 252 254 257 259 260 260 261 262 263 265 267 269 272 275 279 282 285 286 286 285 286 288 288 286 285 285 284 285 287 289 291 292 293 293 293 293 293 294 295 296 297 298 300 301 301 298 294 290 289 286 283 279 273 266 260 258 258 260 262 264 268 274 280 284 287 288 288 289 290 291 291 293 293 293 295 298
266 265 264 260 258 257 256 255 251 248 248 251 253 255 256 258 259 260 261 262 264 266 269 272 276 279 281 284 284 284 285 286 286 284 282 282 282 283 285 286 288 289 290 292 293 294 294 294 294 294 295 296 297 298 298 298 297 293 290 288 284 277 271 268 266 266 264 263 264 268 272 275 279 283 285 287 288 288 287 288 289 290 291 291 291 293 295
265 265 265 262 259 257 256 254 251 248 248 249 251 253 255 256 256 257 259 262 264 267 269 272 276 279 281 282 282 283 284 284 282 280 280 281 281 283 284 285 286 287 289 291 293 295 295 295 295 295 296 296 296 295 295 295 294 292 287 283 279 277 275 273 271 269 268 269 271 274 277 280 284 286 288 289 289 288 286 286 287 288 288 288 289 290 292
264 263 264 263 259 255 254 252 248 246 245 247 249 250 251 251 252 254 257 262 266 269 271 273 276 278 279 280 281 282 281 279 278 277 278 279 280 282 284 284 285 287 290 292 293 294 294 294 295 296 295 295 295 295 296 295 293 290 285 280 277 278 279 278 275 273 272 274 276 278 281 283 286 288 289 289 288 287 286 286 286 286 285 286 287 288 289
264 262 261 260 255 252 251 248 243 239 239 242 245 246 246 248 250 252 256 262 268 273 275 275 276 277 277 278 278 278 276 274 274 275 277 278 280 282 283 284 286 289 291 292 292 293 294 296 297 296 294 294 294 295 296 296 293 289 285 281 279 279 280 280 278 277 276 278 279 281 284 286 287 288 289 288 288 287 287 286 286 285 284 285 286 287 288
266 262 259 256 252 249 248 244 238 235 234 237 241 244 245 246 249 252 257 265 271 274 275 275 275 275 275 274 273 272 271 272 273 275 277 278 279 280 282 284 287 290 292 292 293 294 296 298 299 298 295 294 293 293 293 293 292 289 287 284 283 282 281 280 280 279 279 280 282 284 287 289 289 288 288 288 288 287 287 286 286 285 284 285 286 287 288
267 262 258 254 250 246 243 238 235 233 234 237 240 241 242 245 249 253 260 267 271 272 273 273 272 271 270 269 268 269 271 273 274 275 276 277 277 278 281 284 287 290 292 294 295 296 298 300 301 300 298 295 294 294 295 295 294 293 291 290 288 286 283 282 281 281 281 283 285 287 289 289 289 289 288 288 288 288 287 286 285 284 283 283 284 285 287
261 256 251 246 241 238 238 237 234 234 236 237 236 236 240 246 251 256 262 268 272 273 273 272 271 270 268 267 268 271 273 274 275 275 275 275 276 277 280 284 287 289 291 293 294 295 297 297 297 297 297 296 295 295 297 298 298 297 296 294 292 289 287 285 284 283 284 285 287 288 289 289 288 288 288 289 289 288 287 286 285 284 284 285 285 286 288
256 250 245 238 231 226 226 229 230 230 231 230 230 234 242 248 254 259 265 270 272 273 272 271 269 269 270 271 272 274 275 274 274 273 273 274 275 276 278 282 285 288 290 292 293 295 295 295 294 294 294 295 295 296 297 296 296 296 295 294 292 290 289 287 286 286 286 287 287 288 288 287 287 288 289 289 289 288 287 286 286 286 286 287 287 288 290
252 242 236 231 225 218 216 219 224 229 232 234 237 242 247 251 255 261 266 268 268 268 270 270 270 271 273 274 274 274 274 272 270 270 271 273 275 277 279 281 284 287 290 291 292 292 292 293 293 293 294 294 295 297 296 295 293 293 292 291 289 288 287 287 286 286 286 286 287 286 286 287 288 289 290 289 289 288 287 287 287 287 287 287 288 289 290
240 232 227 225 223 219 218 222 227 233 237 241 244 246 247 250 254 258 260 262 264 266 268 270 270 271 272 272 271 270 270 268 268 270 273 276 279 280 280 280 282 285 288 289 290 290 290 290 290 292 293 295 296 297 296 295 293 292 291 289 288 287 287 286 286 286 286 286 286 286 287 288 289 289 289 289 289 289 289 289 288 288 287 288 288 289 290
233 233 230 228 227 226 226 228 231 235 238 240 242 243 245 248 253 256 259 262 264 265 266 268 269 269 269 269 268 267 267 268 270 274 277 279 279 278 278 279 282 284 286 288 289 289 288 288 288 290 293 295 298 299 299 297 295 293 291 290 289 288 287 286 286 286 287 287 286 287 288 288 289 289 290 290 290 291 291 290 289 289 288 289 289 290 291
221 222 220 219 221 223 224 226 229 232 233 235 238 242 247 250 253 255 259 261 263 264 266 267 267 267 267 267 266 266 267 270 274 276 277 278 277 276 276 279 282 283 285 287 289 289 288 288 289 291 294 297 299 300 300 299 297 295 293 291 289 288 288 287 286 286 286 287 287 287 288 288 288 289 289 290 290 290 290 290 290 290 290 290 290 291 291
183 187 192 199 205 210 214 219 225 229 232 237 242 248 251 252 253 255 258 261 262 264 265 266 266 267 266 265 264 265 266 269 273 276 276 276 276 275 277 278 280 282 284 286 287 288 288 289 290 292 294 296 298 299 299 299 298 297 296 294 292 290 288 287 286 286 286 287 287 288 288 289 289 289 290 290 290 290 290 290 290 290 291 291 291 291 292
168 175 184 194 203 209 213 219 226 232 238 243 247 250 251 251 253 256 258 260 262 263 265 266 267 266 265 265 266 266 266 268 271 273 273 273 274 276 278 280 281 282 283 285 286 287 288 288 289 291 293 295 297 298 299 299 298 298 298 296 293 290 289 288 287 287 288 289 289 289 290 290 291 291 291 291 291 291 291 291 292 292 293 293 293 294 294
165 178 192 204 212 217 222 228 236 241 245 246 248 250 251 253 256 258 260 261 263 264 265 266 267 265 264 264 265 265 266 270 274 274 273 273 276 278 280 281 282 283 285 286 287 287 287 287 288 289 292 294 296 297 297 297 296 297 297 296 294 291 290 289 289 289 291 292 292 292 292 292 293 293 293 293 293 293 294 294 294 295 295 296 296 296 297
174 191 207 217 220 224 230 237 242 245 246 247 249 252 255 258 261 263 264 263 264 264 266 267 267 265 264 265 265 265 268 273 276 276 274 275 277 278 280 282 284 286 288 288 287 286 286 286 287 289 291 293 294 295 295 294 293 293 294 294 293 291 290 290 291 292 293 294 294 294 295 295 296 296 296 296 296 297 297 297 297 297 297 297 298 299 299
194 216 229 235 237 240 245 250 252 253 254 255 256 259 261 263 265 265 264 263 263 265 267 268 268 267 265 265 267 268 270 274 276 277 277 279 281 283 283 285 287 289 289 288 286 285 285 286 287 289 290 292 292 293 293 291 290 290 291 291 291 291 291 291 292 293 294 295 296 297 298 299 299 299 299 299 299 300 300 300 300 300 300 300 300 300 300
272 263 256 254 256 260 263 264 263 262 262 263 264 265 266 268 269 268 266 265 266 268 268 269 270 270 269 268 269 271 274 276 278 279 280 281 283 283 284 286 288 289 289 288 286 285 286 286 287 288 289 289 290 291 291 289 288 288 289 290 290 291 291 292 292 293 293 294 296 298 300 301 301 301 302 302 302 303 303 304 304 304 304 303 303 303 303